Location: Amon Carter Post Office
(32.8281°N, 97.0484°W)
Time: 10:24:34
(UTC+00:00)

Sich 1 - Pass Details

Date: 14 July 2022
Orbit: 593 x 623 km, 82.5° (Epoch: 09 August)

Event Time Altitude Azimuth Distance (km) Brightness Sun altitude
Exits shadow 08:09:46 30° 48° (NE) 1,087 4.8 -30.9°
Drops below altitude 10° 08:12:18 10° 23° (NNE) 1,931 6.5 -30.7°
Sets 08:14:36 0° 16° (NNE) 2,835 7.6 -30.5°
